Regional Weather Roundup
Issued by NWS

Home | Current Version | Previous Version | Graphics & Text | Print | Product List | Glossary On
Versions: 1 2 3 4 5 6 7 8 9 10 11 12 13 14 15 16 17 18 19 20 21 22 23 24 25 26 27
000
ASUS45 KBOU 291907
RWRCO

WEATHER ROUNDUP FOR COLORADO
NATIONAL WEATHER SERVICE DENVER/BOULDER CO
100 PM MDT SAT APR 29 2017

NOTE: "FAIR" INDICATES FEW OR NO CLOUDS BELOW 12000 FEET WITH NO
SIGNIFICANT WEATHER AND/OR OBSTRUCTIONS TO VISIBILITY.

COZ001>005-013-030-031-292000-
...NORTHWEST COLORADO...

CITY           SKY/WX    TMP DP  RH WIND       PRES   REMARKS
CRAIG          CLOUDY    43  17  35 E13G18    30.11S
HAYDEN         FAIR      37  18  44 E10       30.12R
MEEKER         FAIR      44  21  40 NE14      30.08S
MOUNT WERNER   NOT AVBL
STEAMBOAT SPGS CLOUDY    35  19  51 N6        30.12S WCI  30
WALDEN           N/A     27  18  69 N13       30.15R WCI  16
$$

COZ006>008-011-292000-
...WEST CENTRAL VALLEYS...

CITY           SKY/WX    TMP DP  RH WIND       PRES   REMARKS
GRAND JUNCTION CLOUDY    50  21  32 NE12G25   30.04S
MONTROSE       CLOUDY    45  26  47 VRB3      30.03S
EAGLE          CLOUDY    37  12  35 SE7       30.10
RIFLE          CLOUDY    44  21  40 N8        30.08R
DELTA          PTSUNNY   52  23  31 E7        30.00F
NUCLA          CLOUDY    46  19  34 N14G23    30.03S
$$

COZ017>023-064>068-292000-
...SOUTHWEST COLORADO...

CITY           SKY/WX    TMP DP  RH WIND       PRES   REMARKS
DURANGO        FAIR      43  21  41 VRB6      29.94S
CORTEZ         CLOUDY    46  28  49 S9        29.95S
PAGOSA SPRINGS CLOUDY    38  19  46 NE14G20   29.95R
TELLURIDE      CLOUDY    32  22  67 SW6       29.99R WCI  26
WOLF CREEK PAS LGT SNOW  14  12  92 N14G22    29.99R VSB 1   WCI  -1
$$

COZ009-010-012-014-032>034-037-058>063-292000-
...CENTRAL COLORADO...

CITY           SKY/WX    TMP DP  RH WIND       PRES   REMARKS
ASPEN          CLOUDY    33  20  58 W9        30.03R WCI  25
BUENA VISTA    LGT SNOW  29  22  73 W6        30.07F WCI  23
COPPER MTN     LGT SNOW  18  10  73 NW6       30.03S WCI   9
BERTHOUD PASS  SNOW      10  -2  56 CALM      30.03S VSB 1/2
COTTONWOOD PAS CLOUDY    27  18  69 E6        30.05F WCI  20
GUNNISON       FAIR      34  14  43 CALM      30.01S
KREMMLING      CLOUDY    34  25  69 N7        30.12S WCI  28
LEADVILLE      LGT SNOW  19  13  77 CALM      30.02F
MONARCH PASS     N/A     12   9  85 E35       30.03R WCI -10
SALIDA         CLOUDY    32  23  69 N8        30.14F WCI  25
SUNLIGHT       PTSUNNY   21  16  79 NE7       30.09S WCI  13
WILKERSON PASS CLOUDY   N/A N/A N/A NE9G17    30.05S
$$

COZ069>075-292000-
...SAN LUIS VALLEY/SANGRE DE CRISTO MOUNTAINS...

CITY           SKY/WX    TMP DP  RH WIND       PRES   REMARKS
ALAMOSA        CLOUDY    34  14  43 NE21G32   29.96S WCI  22
LA VETA PASS   SNOW      18  14  86 NE18G31   30.06S VSB 1/2 WCI   2
SAGUACHE       CLOUDY    37  10  32 NE9G16    29.98F
$$

COZ035-036-038>040-292000-
...NORTHERN COLORADO FRONT RANGE...

CITY           SKY/WX    TMP DP  RH WIND       PRES   REMARKS
DENVER INTL AP LGT SNOW  30  27  88 N17       30.17F VSB 3/4 WCI  18
DMNS CITY PARK   N/A     30  29  98 NE7G17    30.18F WCI  23
AURORA         LGT SNOW  29  28  96 N14       30.16F FOG     WCI  18
FRONT RANGE AP LGT SNOW  32  30  93 N16       30.16F WCI  21
ERIE MUNI ARPT LGT SNOW  32  30  91 N15       30.20F WCI  22
BOULDER MUN AP LGT SNOW  32  30  93 N10       30.20F WCI  24
CENTENNIAL     LGT SNOW  28  26  92 N14       30.15F VSB 3/4 WCI  17
BROOMFIELD     LGT SNOW  30  28  93 N15       30.18F VSB 1   WCI  19
FORT COLLINS   LGT RAIN  33  28  81 N15       30.21F WCI  23
LONGMONT       LGT SNOW  35  31  83 N12       30.23F WCI  27
$$

COZ041-046-047-076>085-087-088-292000-
...PIKES PEAK/PALMER DIVIDE AND SOUTHERN FOOTHILLS...

CITY           SKY/WX    TMP DP  RH WIND       PRES   REMARKS
COLO. SPRINGS  LGT SNOW  32  25  75 N24G30    30.08F FOG     WCI  19
A. F. ACADEMY  MIX PCPN  27  23  84 N18       30.08F WCI  14
SCHRIEVER AFB  LGT RAIN  28  25  86 N25G36    30.06  WCI  14
ELLICOTT       LGT RAIN N/A N/A N/A N26G37    30.04F
FALCON         LGT SNOW  28  22  76 N23G30    30.07S VSB 1   WCI  14
FORT CARSON    LGT SNOW  31  24  77 N20G33    30.06F WCI  18
LIMON          LGT SNOW  30  26  85 N29G38    30.08R FOG     WCI  15
MONUMENT HILL  CLOUDY    27  21  80 N17       30.11F WCI  14
TRINIDAD       SNOW      29  25  85 N17       30.05S VSB 1/2 WCI  17
$$

COZ042>045-048>051-090-091-292000-
...NORTHEAST COLORADO...

CITY           SKY/WX    TMP DP  RH WIND       PRES   REMARKS
GREELEY ARPT   PTSUNNY   35  29  78 N15       30.21F WCI  25
AKRON          CLOUDY    37  20  50 N24G31    30.12F
BURLINGTON     NOT AVBL
WRAY           NOT AVBL
STERLING       CLOUDY    43  21  42 NE17      30.15F
HOLYOKE        FAIR      45  27  49 NE20G29   30.14F
FORT MORGAN    CLOUDY    37  19  46 NE15G28   30.17F
$$

COZ086-089-092>099-292000-
...SOUTHEAST COLORADO...

CITY           SKY/WX    TMP DP  RH WIND       PRES   REMARKS
PUEBLO         FOG       33  29  85 N17       30.10F VSB 1   WCI  22
LA JUNTA       LGT SNOW  35  31  85 N18       30.05F FOG     WCI  24
LAMAR          MIX PCPN  36  30  79 N18G31    30.00S
SPRINGFIELD      N/A     32  30  92 N35G44    29.92F WCI  17
$$




USA.gov is the U.S. government's official web portal to all federal, state and local government web resources and services.